Location: Focicchia
(42.2496°N, 9.2935°E)
Time: 20:02:20
(UTC+00:00)

Helios 1B rocket - Pass Details

Date: 07 June 2020
Orbit: 575 x 583 km, 98.1° (Epoch: 04 July)

Event Time Altitude Azimuth Distance (km) Brightness Sun altitude
Rises 00:44:11 0° 359° (N) 2,815 7.1 -22.2°
Reaches altitude 10° 00:46:40 10° 345° (NNW) 1,911 5.8 -22.1°
Maximum altitude 00:49:55 23° 293° (WNW) 1,267 4.1 -21.9°
Enters shadow 00:50:29 22° 281° (W) 1,289 4.1 -21.8°
